Temp_Advection
nan nan nan nan nan nan nan nan nan nan nan nan nan nan nan nan nan nan nan nan nan nan
nan 0 0 0 0 1 1 1 1 0 1 1 1 1 2 2 1 1 1 2 1 nan
nan 0 0 -0 0 0 1 1 1 0 0 0 1 2 1 1 1 1 1 2 2 nan
nan 0 -0 0 0 0 1 1 0 -0 -0 0 0 1 1 1 2 2 2 1 1 nan
nan 0 0 0 -0 0 1 1 0 -0 0 1 2 1 1 2 3 2 -0 1 2 nan
nan 1 0 0 0 1 1 1 2 1 1 1 1 1 2 3 3 1 2 3 1 nan
nan 0 -0 0 1 1 1 1 2 1 1 1 -0 2 3 2 2 1 2 1 1 nan
nan 0 0 1 1 1 1 3 2 1 1 -0 1 3 1 1 1 1 1 1 1 nan
nan -0 1 2 1 1 3 3 1 1 -0 1 3 2 1 1 1 1 1 1 1 nan
nan 0 0 1 1 2 2 1 0 1 2 4 2 1 1 1 1 1 1 1 1 nan
nan 0 0 1 1 1 0 1 2 2 2 1 1 1 1 1 1 1 1 1 1 nan
nan 0 0 0 0 1 1 1 1 1 0 0 1 1 1 1 1 1 1 1 1 nan
nan 0 0 0 0 0 0 0 0 0 0 0 0 0 0 0 1 1 1 1 1 nan
nan nan nan nan nan nan nan nan nan nan nan nan nan nan nan nan nan nan nan nan nan nan
Wind_Speed
59 59 60 59 56 58 59 64 66 66 69 69 66 64 60 59 59 60 61 60 60 57
55 57 59 58 55 56 56 60 58 62 66 70 66 66 63 61 60 61 59 60 58 58
52 55 55 52 54 56 57 57 58 58 59 67 69 67 64 61 61 61 59 60 59 58
46 50 53 55 56 57 58 56 58 59 55 57 67 66 61 62 61 60 60 61 59 58
44 48 51 55 58 59 59 57 59 58 53 53 60 66 61 62 63 62 61 62 60 58
36 45 46 51 55 57 57 59 57 56 56 54 46 54 58 58 63 63 59 58 55 56
25 35 47 46 51 55 50 50 54 54 51 44 41 48 57 56 59 58 53 52 49 50
26 33 37 43 45 49 51 53 54 52 46 40 39 49 50 48 49 50 48 44 41 39
22 27 32 35 40 46 50 52 52 42 38 39 44 43 38 38 39 39 39 36 35 32
20 20 19 27 36 40 43 44 37 39 39 46 40 36 30 29 29 29 28 26 26 25
13 12 12 18 23 29 31 29 34 36 35 35 28 26 26 24 23 22 20 19 20 21
9 7 8 11 15 19 21 22 22 19 19 17 18 16 18 21 22 20 19 18 17 18
8 9 12 11 12 15 16 15 15 15 12 12 15 15 16 17 18 18 18 17 17 17
15 13 14 14 13 14 14 15 16 16 15 15 15 17 15 14 14 14 15 15 17 17
Wind_Direction
227 224 224 224 221 222 221 226 228 225 224 223 223 224 223 225 224 224 223 226 226 227
227 226 225 225 223 226 224 225 224 227 227 224 224 223 223 223 222 224 226 228 227 229
231 230 229 225 223 223 228 226 227 228 228 226 223 222 220 222 224 223 224 226 227 228
236 234 232 229 229 230 226 226 225 227 229 226 227 223 222 224 225 224 223 223 225 227
247 241 236 230 227 228 229 233 233 232 237 234 232 227 221 221 222 221 221 223 222 224
248 240 237 237 232 228 230 229 234 230 225 229 224 236 227 223 225 223 224 225 224 225
259 254 247 237 235 231 229 235 233 227 228 223 225 227 228 221 224 226 226 226 226 227
253 246 240 242 245 235 240 233 227 224 217 226 223 223 223 226 227 226 226 226 227 232
252 247 241 236 231 229 229 224 224 215 219 222 223 222 222 222 221 224 224 226 226 227
253 249 252 245 229 225 220 220 221 221 216 217 211 210 205 207 210 213 215 217 220 223
234 250 252 246 238 229 225 217 205 206 206 204 206 193 192 185 191 195 200 209 215 220
172 161 186 205 198 202 196 198 204 189 204 193 191 187 186 177 177 183 194 203 211 217
157 155 162 159 156 160 170 164 163 153 163 175 178 165 174 171 176 183 193 199 205 208
138 144 149 147 148 139 135 138 146 157 157 167 167 166 177 178 186 194 200 208 201 207
Height
1364 1368 1371 1375 1378 1383 1385 1387 1392 1399 1406 1413 1422 1431 1439 1443 1451 1457 1465 1470 1475 1483
1354 1359 1361 1366 1373 1375 1379 1382 1388 1392 1399 1403 1411 1418 1427 1432 1438 1445 1454 1460 1468 1473
1345 1349 1353 1360 1362 1365 1368 1373 1379 1385 1392 1395 1399 1405 1414 1422 1429 1435 1442 1449 1456 1463
1338 1341 1345 1348 1352 1355 1357 1361 1368 1374 1385 1391 1392 1395 1402 1407 1416 1424 1432 1439 1446 1452
1331 1334 1336 1339 1339 1343 1348 1353 1361 1366 1372 1379 1385 1379 1387 1397 1404 1412 1419 1426 1434 1441
1324 1326 1326 1329 1331 1334 1337 1342 1350 1356 1360 1366 1372 1374 1379 1387 1397 1402 1409 1418 1427 1436
1320 1322 1321 1322 1325 1327 1331 1337 1343 1346 1354 1362 1367 1371 1376 1380 1391 1397 1401 1411 1416 1428
1314 1317 1317 1317 1320 1323 1326 1331 1334 1340 1346 1353 1359 1365 1372 1378 1386 1392 1397 1407 1414 1420
1310 1312 1312 1312 1315 1316 1319 1322 1327 1331 1337 1345 1347 1358 1364 1374 1381 1388 1395 1402 1408 1414
1311 1311 1307 1310 1311 1314 1316 1319 1321 1326 1333 1340 1344 1354 1358 1368 1376 1385 1393 1398 1403 1410
1306 1305 1303 1308 1310 1313 1316 1318 1317 1327 1332 1341 1345 1349 1356 1363 1372 1380 1388 1395 1401 1407
1300 1302 1306 1310 1310 1313 1314 1320 1324 1326 1337 1341 1345 1352 1358 1363 1369 1377 1385 1393 1400 1405
1299 1302 1310 1314 1314 1315 1319 1320 1324 1326 1337 1343 1349 1355 1361 1364 1370 1377 1384 1390 1396 1401
1303 1307 1312 1314 1319 1319 1320 1324 1328 1335 1341 1346 1350 1355 1362 1366 1372 1377 1383 1389 1390 1397